TimeCDT,TemperatureF,Dew PointF,Humidity,Sea Level PressureIn,VisibilityMPH,Wind Direction,Wind SpeedMPH,Gust SpeedMPH,PrecipitationIn,Events,Conditions,WindDirDegrees,DateUTC
12:53 AM,28.0,23.0,81,30.37,10.0,Calm,Calm,-,N/A,,Clear,0,2013-04-03 05:53:00
1:53 AM,26.1,21.9,84,30.37,9.0,Calm,Calm,-,N/A,,Clear,0,2013-04-03 06:53:00
2:53 AM,26.1,21.0,81,30.37,10.0,East,3.5,-,N/A,,Clear,80,2013-04-03 07:53:00
3:53 AM,26.1,21.9,84,30.38,10.0,South,3.5,-,N/A,,Clear,180,2013-04-03 08:53:00
4:53 AM,27.0,21.9,81,30.40,10.0,Calm,Calm,-,N/A,,Overcast,0,2013-04-03 09:53:00
5:53 AM,25.0,21.0,85,30.40,10.0,Calm,Calm,-,N/A,,Clear,0,2013-04-03 10:53:00
6:53 AM,23.0,19.0,85,30.43,9.0,Calm,Calm,-,N/A,,Clear,0,2013-04-03 11:53:00
7:53 AM,25.0,21.0,85,30.43,8.0,Calm,Calm,-,N/A,,Clear,0,2013-04-03 12:53:00
8:53 AM,28.9,23.0,78,30.43,10.0,SE,3.5,-,N/A,,Clear,130,2013-04-03 13:53:00
9:53 AM,34.0,21.0,59,30.43,10.0,SE,10.4,-,N/A,,Clear,130,2013-04-03 14:53:00
10:53 AM,36.0,19.9,52,30.42,10.0,SSE,11.5,-,N/A,,Clear,160,2013-04-03 15:53:00
11:53 AM,39.0,19.0,45,30.42,10.0,SE,10.4,-,N/A,,Clear,130,2013-04-03 16:53:00
12:53 PM,42.1,19.9,41,30.40,10.0,South,10.4,19.6,N/A,,Clear,170,2013-04-03 17:53:00
1:53 PM,44.1,19.0,37,30.37,10.0,SE,9.2,-,N/A,,Clear,140,2013-04-03 18:53:00
2:53 PM,45.0,19.9,37,30.35,10.0,SSE,9.2,-,N/A,,Clear,150,2013-04-03 19:53:00
3:53 PM,46.0,19.9,35,30.33,10.0,South,4.6,-,N/A,,Clear,190,2013-04-03 20:53:00
4:53 PM,48.0,21.9,36,30.30,10.0,South,8.1,-,N/A,,Clear,170,2013-04-03 21:53:00
5:53 PM,48.9,21.9,35,30.28,10.0,SSE,9.2,-,N/A,,Clear,160,2013-04-03 22:53:00
6:53 PM,46.9,21.9,37,30.28,10.0,SSE,8.1,-,N/A,,Clear,150,2013-04-03 23:53:00
7:53 PM,41.0,24.1,51,30.27,10.0,SSE,6.9,-,N/A,,Clear,150,2013-04-04 00:53:00
8:53 PM,37.9,24.1,57,30.27,10.0,SSE,5.8,-,N/A,,Clear,150,2013-04-04 01:53:00
9:53 PM,35.1,23.0,61,30.27,10.0,SSE,6.9,-,N/A,,Clear,160,2013-04-04 02:53:00
10:53 PM,35.1,21.0,57,30.27,10.0,SSE,5.8,-,N/A,,Clear,150,2013-04-04 03:53:00
11:53 PM,33.1,21.0,61,30.26,10.0,South,5.8,-,N/A,,Clear,170,2013-04-04 04:53:00